Location: Newark
(43.4306°N, 0.3089°E)
Time: 13:01:11
(UTC+00:00)

S-56A Canister/Altair - Pass Details

Date: 23 August 2019
Orbit: 633 x 2499 km, 38.9° (Epoch: 15 September)

Event Time Altitude Azimuth Distance (km) Brightness Sun altitude
Rises 23:38:03 0° 267° (W) 2,933 - -35.0°
Reaches altitude 10° 23:40:22 10° 261° (W) 2,010 - -35.1°
Maximum altitude 23:44:35 45° 188° (S) 913 - -35.2°
Drops below altitude 10° 23:49:29 10° 117° (ESE) 2,325 - -35.2°
Sets 23:52:21 0° 111° (ESE) 3,458 - -35.3°
